KT2UU-13 Weather Reports


time (UTC)temp
F
wind
direction
speed
knots
gust
knots
rain 1hr
in
rain 24hr
in
rain mn
in
humidity
%
barometer
mb
20260901021454 76 211 0.0 0.0 0.00 0.00 0.00 91 1020.2
20260901020949 76 211 0.0 0.0 0.00 0.00 0.00 90 1020.3
20260901020445 77 211 0.0 0.0 0.00 0.00 0.00 90 1020.1
20260901015943 77 211 0.0 0.0 0.00 0.00 0.00 89 1020.4
20260901015440 76 211 0.0 0.0 0.00 0.00 0.00 88 1020.0
20260901014939 77 211 0.0 0.0 0.00 0.00 0.00 90 1020.0
20260901014436 77 211 0.0 0.0 0.00 0.00 0.00 90 1019.9
20260901013931 77 211 0.0 0.0 0.00 0.00 0.00 89 1019.9
20260901013427 77 211 0.0 0.0 0.00 0.00 0.00 90 1019.9
20260901012922 77 211 0.0 0.0 0.00 0.00 0.00 89 1020.0
20260901012416 78 211 0.0 0.0 0.00 0.00 0.00 88 1019.8
20260901011912 78 211 0.0 0.0 0.00 0.00 0.00 88 1019.8
20260901011408 78 211 0.0 0.0 0.00 0.00 0.00 87 1019.6
20260901010906 78 211 0.0 0.0 0.00 0.00 0.00 86 1019.5
20260901010401 78 211 0.0 0.0 0.00 0.00 0.00 86 1019.4
20260901005859 79 211 0.0 0.0 0.00 0.00 0.00 86 1019.6
20260901005355 79 211 0.0 0.0 0.00 0.00 0.00 87 1019.5
20260901004845 79 212 0.0 0.0 0.00 0.00 0.00 86 1019.4
20260901004344 80 211 0.0 0.0 0.00 0.00 0.00 84 1019.5
20260901003838 80 211 0.0 0.0 0.00 0.00 0.00 85 1019.3
20260901003334 80 211 0.0 0.0 0.00 0.00 0.00 85 1019.3
20260901002832 81 211 0.0 0.0 0.00 0.00 0.00 85 1019.5
20260901002326 82 205 0.0 0.0 0.00 0.00 0.00 84 1019.4
20260901001821 82 211 0.0 0.0 0.00 0.00 0.00 83 1019.4
20260901001316 82 211 0.0 0.0 0.00 0.00 0.00 80 1019.3
20260901000811 83 211 0.0 0.0 0.00 0.00 0.00 79 1019.3
20260901000307 83 211 0.0 0.0 0.00 0.00 0.00 78 1019.3
20260831235804 85 211 0.0 0.0 0.00 0.00 0.00 80 1019.0
20260831235301 85 211 0.0 0.0 0.00 0.00 0.00 76 1019.4
20260831234755 86 211 0.0 0.0 0.00 0.00 0.00 76 1019.4
20260831234255 87 211 0.0 0.0 0.00 0.00 0.00 74 1019.3
20260831233751 89 211 0.0 0.0 0.00 0.00 0.00 71 1019.6
20260831233246 91 211 0.0 0.0 0.00 0.00 0.00 65 1019.6
20260831232741 90 211 0.0 0.0 0.00 0.00 0.00 66 1019.6
20260831232237 89 211 0.0 0.0 0.00 0.00 0.00 68 1019.6
20260831231733 91 211 0.0 0.0 0.00 0.00 0.00 63 1019.4
20260831231230 94 211 0.0 0.0 0.00 0.00 0.00 58 1019.3
20260831230724 94 211 0.0 0.0 0.00 0.00 0.00 55 1019.5
20260831230219 95 211 0.0 0.0 0.00 0.00 0.00 54 1019.5
20260831225718 95 211 0.0 0.0 0.00 0.00 0.00 51 1019.4
20260831225213 95 211 0.0 0.0 0.00 0.00 0.00 50 1019.5
20260831224703 92 211 0.0 0.0 0.00 0.00 0.00 57 1019.7
20260831224158 93 211 0.0 0.0 0.00 0.00 0.00 53 1019.5
20260831223654 94 211 0.0 0.0 0.00 0.00 0.00 52 1019.7
20260831223150 94 211 0.0 0.0 0.00 0.00 0.00 53 1019.6
20260831222646 93 211 0.0 0.0 0.00 0.00 0.00 52 1019.7
20260831222141 94 211 0.0 0.0 0.00 0.00 0.00 50 1019.9
20260831221637 94 211 0.0 0.9 0.00 0.00 0.00 50 1019.8
20260831221131 93 211 0.9 1.7 0.00 0.00 0.00 50 1019.7
20260831220627 94 211 2.6 2.6 0.00 0.00 0.00 48 1019.8
20260831220122 93 211 0.0 0.0 0.00 0.00 0.00 52 1019.8
20260831215617 93 211 0.0 0.0 0.00 0.00 0.00 50 1019.8
20260831215113 95 211 0.0 0.0 0.00 0.00 0.00 49 1020.2
20260831214610 94 211 2.6 2.6 0.00 0.00 0.00 50 1019.9
20260831214106 94 211 0.9 1.7 0.00 0.00 0.00 49 1020.0
20260831213603 95 211 1.7 2.6 0.00 0.00 0.00 50 1019.9
20260831213057 95 211 0.0 0.9 0.00 0.00 0.00 49 1019.9
20260831212554 94 211 0.0 0.9 0.00 0.00 0.00 52 1020.0
20260831212050 94 211 0.0 2.6 0.00 0.00 0.00 53 1020.1
20260831211548 94 211 0.9 2.6 0.00 0.00 0.00 50 1020.0
20260831211048 93 211 0.0 0.0 0.00 0.00 0.00 51 1020.0
20260831210538 92 211 0.0 1.7 0.00 0.00 0.00 52 1020.0
20260831210034 93 211 2.6 2.6 0.00 0.00 0.00 53 1020.2
20260831205534 93 211 1.7 3.5 0.00 0.00 0.00 51 1020.1
20260831205029 93 211 0.0 3.5 0.00 0.00 0.00 52 1020.3
20260831204524 94 211 1.7 1.7 0.00 0.00 0.00 51 1020.4
20260831204022 94 211 0.0 1.7 0.00 0.00 0.00 50 1020.5
20260831203517 92 206 0.0 1.7 0.00 0.00 0.00 53 1020.3
20260831203016 93 206 0.9 2.6 0.00 0.00 0.00 52 1020.3
20260831202510 93 211 1.7 3.5 0.00 0.00 0.00 54 1020.2
20260831202009 93 211 0.0 0.9 0.00 0.00 0.00 52 1020.4
20260831201508 92 211 0.9 2.6 0.00 0.00 0.00 54 1020.4
20260831201004 92 211 1.7 5.2 0.00 0.00 0.00 54 1020.6
20260831200500 90 211 1.7 2.6 0.00 0.00 0.00 57 1020.5
20260831195954 92 211 0.0 3.5 0.00 0.00 0.00 56 1020.6
20260831195450 92 211 2.6 3.5 0.00 0.00 0.00 54 1020.7
20260831194944 92 211 0.0 0.0 0.00 0.00 0.00 56 1021.0
20260831194440 92 211 0.0 0.9 0.00 0.00 0.00 56 1020.9
20260831193939 93 211 0.0 0.9 0.00 0.00 0.00 55 1020.8
20260831193435 92 211 0.9 0.9 0.00 0.00 0.00 55 1021.0
20260831192930 91 211 0.9 1.7 0.00 0.00 0.00 56 1020.9
20260831192430 91 211 0.9 1.7 0.00 0.00 0.00 57 1021.0
20260831191925 92 211 1.7 2.6 0.00 0.00 0.00 55 1020.8
20260831191421 92 211 0.9 1.7 0.00 0.00 0.00 56 1021.1
20260831190917 91 211 0.9 3.5 0.00 0.00 0.00 58 1020.8
20260831190412 90 211 0.0 1.7 0.00 0.00 0.00 59 1021.0
20260831185911 90 210 1.7 2.6 0.00 0.00 0.00 62 1021.2
20260831185408 91 211 0.9 0.9 0.00 0.00 0.00 59 1021.1
20260831184907 91 211 0.0 0.0 0.00 0.00 0.00 56 1021.3
20260831184402 91 211 0.9 1.7 0.00 0.00 0.00 58 1021.4
20260831183857 91 211 0.0 0.0 0.00 0.00 0.00 58 1021.5
20260831183356 91 211 0.9 0.9 0.00 0.00 0.00 57 1021.3
20260831182856 89 211 0.0 0.0 0.00 0.00 0.00 63 1021.3
20260831182351 89 211 0.0 1.7 0.00 0.00 0.00 61 1021.4
20260831181847 89 211 0.0 1.7 0.00 0.00 0.00 62 1021.5
20260831181342 90 211 0.0 2.6 0.00 0.00 0.00 61 1021.6
20260831180836 89 211 0.0 2.6 0.00 0.00 0.00 64 1021.5
20260831180331 90 211 0.9 2.6 0.00 0.00 0.00 64 1021.7
20260831175830 89 211 0.0 2.6 0.00 0.00 0.00 61 1021.7
20260831175327 89 211 0.0 2.6 0.00 0.00 0.00 64 1021.8
20260831174823 90 211 0.9 3.5 0.00 0.00 0.00 65 1021.7
20260831174318 90 211 0.9 1.7 0.00 0.00 0.00 64 1021.8
20260831173817 89 211 0.9 0.9 0.00 0.00 0.00 63 1021.9
20260831173311 90 211 0.0 2.6 0.00 0.00 0.00 62 1022.0
20260831172806 89 211 0.0 0.9 0.00 0.00 0.00 61 1021.8
20260831172305 89 211 0.0 1.7 0.00 0.00 0.00 62 1022.1
20260831171801 89 211 0.0 0.9 0.00 0.00 0.00 61 1021.9
20260831171259 89 211 0.0 1.7 0.00 0.00 0.00 63 1022.0
20260831170755 87 211 0.0 0.9 0.00 0.00 0.00 67 1022.1
20260831170251 87 210 0.0 1.7 0.00 0.00 0.00 70 1022.0
20260831165747 87 211 0.0 3.5 0.00 0.00 0.00 70 1022.2
20260831165244 86 206 0.9 1.7 0.00 0.00 0.00 73 1022.1
20260831164739 87 211 0.0 0.9 0.00 0.00 0.00 70 1022.2
20260831164235 86 211 1.7 2.6 0.00 0.00 0.00 71 1022.3
20260831163730 86 211 3.5 3.5 0.00 0.00 0.00 70 1022.4
20260831163226 87 211 0.0 3.5 0.00 0.00 0.00 70 1022.6
20260831162724 87 211 0.0 1.7 0.00 0.00 0.00 71 1022.6
20260831162218 87 211 1.7 2.6 0.00 0.00 0.00 70 1022.6
20260831161713 87 211 0.0 1.7 0.00 0.00 0.00 71 1022.8
20260831161210 86 211 0.9 1.7 0.00 0.00 0.00 72 1022.9
20260831160709 87 211 0.9 0.9 0.00 0.00 0.00 72 1022.6
20260831160204 86 211 0.0 1.7 0.00 0.00 0.00 73 1022.8
20260831155703 86 211 0.0 1.7 0.00 0.00 0.00 74 1022.8
20260831155159 86 211 0.0 1.7 0.00 0.00 0.00 75 1022.9
20260831154655 86 211 0.0 0.0 0.00 0.00 0.00 76 1023.1
20260831154150 85 211 0.0 0.0 0.00 0.00 0.00 75 1022.9
20260831153649 84 211 0.0 1.7 0.00 0.00 0.00 76 1022.7
20260831153146 83 210 0.0 2.6 0.00 0.00 0.00 78 1022.9
20260831152641 83 211 0.0 0.9 0.00 0.00 0.00 78 1022.9
20260831152137 83 211 0.0 0.0 0.00 0.00 0.00 78 1023.0
20260831151637 83 211 0.0 2.6 0.00 0.00 0.00 78 1022.9
20260831151131 83 211 0.0 0.0 0.00 0.00 0.00 78 1022.8
20260831150626 84 211 1.7 1.7 0.00 0.00 0.00 77 1022.9
20260831150121 83 211 0.0 0.0 0.00 0.00 0.00 79 1023.0
20260831145615 83 211 0.9 1.7 0.00 0.00 0.00 78 1022.9
20260831145112 82 211 0.0 0.0 0.00 0.00 0.00 80 1023.2
20260831144607 82 211 0.9 1.7 0.00 0.00 0.00 80 1023.0
20260831144102 82 211 0.0 0.0 0.00 0.00 0.00 81 1022.9
20260831143557 82 211 0.0 0.0 0.00 0.00 0.00 82 1022.9
20260831143052 81 211 0.0 0.0 0.00 0.00 0.00 82 1022.9
20260831142549 81 211 0.0 1.7 0.00 0.00 0.00 82 1022.8
20260831142044 80 204 0.0 0.0 0.00 0.00 0.00 83 1022.7
20260831141543 80 210 0.0 0.0 0.00 0.00 0.00 83 1022.7
20260831141038 81 210 0.0 0.0 0.00 0.00 0.00 85 1022.7
20260831140538 80 210 0.0 0.0 0.00 0.00 0.00 85 1022.6
20260831140038 80 210 0.0 0.0 0.00 0.00 0.00 85 1022.5
20260831135535 79 210 0.0 0.0 0.00 0.00 0.00 87 1022.7
20260831135031 78 210 0.0 0.9 0.00 0.00 0.00 87 1022.8
20260831134526 78 210 1.7 1.7 0.00 0.00 0.00 87 1022.8
20260831134021 78 210 0.0 0.0 0.00 0.00 0.00 89 1022.8
20260831133516 77 210 0.0 0.0 0.00 0.00 0.00 89 1022.8
20260831133011 77 210 0.0 1.7 0.00 0.00 0.00 89 1022.9
20260831132507 78 210 0.9 0.9 0.00 0.00 0.00 88 1022.9
20260831132006 78 210 0.0 0.0 0.00 0.00 0.00 88 1023.0
20260831131506 79 210 0.0 0.0 0.00 0.00 0.00 86 1023.0
20260831131002 79 210 0.0 0.0 0.00 0.00 0.00 86 1022.7
20260831130457 78 210 0.0 0.0 0.00 0.00 0.00 87 1022.8
20260831125956 78 210 0.0 0.0 0.00 0.00 0.00 86 1022.8
20260831125451 77 210 0.0 0.0 0.00 0.00 0.00 88 1023.0
20260831124947 77 210 0.0 0.0 0.00 0.00 0.00 88 1022.7
20260831124443 77 210 0.0 0.0 0.00 0.00 0.00 88 1022.6
20260831123938 76 210 0.0 0.0 0.00 0.00 0.00 91 1022.9
20260831123437 76 210 0.0 0.0 0.00 0.00 0.00 93 1022.7
20260831122932 74 210 0.0 0.0 0.00 0.00 0.00 97 1022.6
20260831122427 74 210 0.0 0.0 0.00 0.00 0.00 99 1022.5
20260831121922 74 210 0.0 0.0 0.00 0.00 0.00 99 1022.6
20260831121418 71 210 0.0 0.0 0.00 0.00 0.00 99 1022.4
20260831120914 72 210 0.0 0.0 0.00 0.00 0.00 99 1022.5
20260831120408 72 210 0.0 0.0 0.00 0.00 0.00 99 1022.5
20260831115908 71 210 0.0 0.0 0.00 0.00 0.00 99 1022.4
20260831115404 71 210 0.0 0.0 0.00 0.00 0.00 99 1022.4
20260831114903 70 210 0.0 0.0 0.00 0.00 0.00 99 1022.3
20260831114403 69 210 0.0 0.0 0.00 0.00 0.00 99 1022.3
20260831113859 69 210 0.0 0.0 0.00 0.00 0.00 99 1022.2
20260831113354 69 210 0.0 0.0 0.00 0.00 0.00 99 1022.0
20260831112853 69 210 0.0 0.0 0.00 0.00 0.00 99 1022.1
20260831112343 69 210 0.0 0.0 0.00 0.00 0.00 99 1022.1
20260831111838 69 210 0.0 0.0 0.00 0.00 0.00 99 1021.7
20260831111334 69 210 0.0 0.0 0.00 0.00 0.00 99 1022.0
20260831110829 69 210 0.0 0.0 0.00 0.00 0.00 99 1021.7
20260831110324 69 210 0.0 0.0 0.00 0.00 0.00 99 1021.7
20260831105822 69 210 0.0 0.0 0.00 0.00 0.00 99 1021.6
20260831105318 69 210 0.0 0.0 0.00 0.00 0.00 99 1021.8
20260831104813 69 210 0.0 0.0 0.00 0.00 0.00 99 1021.6
20260831104310 69 210 0.0 0.0 0.00 0.00 0.00 99 1021.4
20260831103809 69 210 0.0 0.0 0.00 0.00 0.00 99 1021.5
20260831103305 69 210 0.0 0.0 0.00 0.00 0.00 99 1021.4
20260831102759 69 210 0.0 0.0 0.00 0.00 0.00 99 1021.2
20260831102300 69 210 0.0 0.0 0.00 0.00 0.00 99 1021.4
20260831101755 69 210 0.0 0.0 0.00 0.00 0.00 99 1021.5
20260831101251 69 210 0.0 0.0 0.00 0.00 0.00 99 1021.3
20260831100747 69 210 0.0 0.0 0.00 0.00 0.00 99 1021.4
20260831100243 69 210 0.0 0.0 0.00 0.00 0.00 99 1021.5
20260831095742 69 210 0.0 0.0 0.00 0.00 0.00 99 1021.4
20260831095237 69 210 0.0 0.0 0.00 0.00 0.00 99 1021.5
20260831094736 69 210 0.0 0.0 0.00 0.00 0.00 99 1021.5
20260831094227 70 210 0.0 0.0 0.00 0.00 0.00 99 1021.5
20260831093723 70 210 0.0 0.0 0.00 0.00 0.00 99 1021.5
20260831093218 70 210 0.0 0.0 0.00 0.00 0.00 99 1021.3
20260831092715 70 210 0.0 0.0 0.00 0.00 0.00 99 1021.2
20260831092210 70 210 0.0 0.0 0.00 0.00 0.00 99 1021.3
20260831091709 70 210 0.0 0.0 0.00 0.00 0.00 99 1021.3
20260831091206 70 210 0.0 0.0 0.00 0.00 0.00 99 1021.4
20260831090705 70 210 0.0 0.0 0.00 0.00 0.00 99 1021.1
20260831090202 70 210 0.0 0.0 0.00 0.00 0.00 99 1021.3
20260831085657 70 202 0.0 0.0 0.00 0.00 0.00 99 1021.1
20260831085152 70 210 0.0 0.0 0.00 0.00 0.00 99 1021.1
20260831084648 70 210 0.0 0.0 0.00 0.00 0.00 99 1021.0
20260831084144 70 210 0.0 0.0 0.00 0.00 0.00 99 1021.0
20260831083639 70 210 0.0 0.0 0.00 0.00 0.00 99 1021.2
20260831083134 70 210 0.0 0.0 0.00 0.00 0.00 99 1020.9
20260831082633 70 210 0.0 0.0 0.00 0.00 0.00 99 1020.9
20260831082128 70 210 0.0 0.0 0.00 0.00 0.00 99 1020.8
20260831081624 70 210 0.0 0.0 0.00 0.00 0.00 99 1020.8
20260831081120 70 210 0.0 0.0 0.00 0.00 0.00 99 1020.8
20260831080615 70 210 0.0 0.0 0.00 0.00 0.00 99 1021.1
20260831080110 70 210 0.0 0.0 0.00 0.00 0.00 99 1021.0
20260831075606 70 210 0.0 0.0 0.00 0.00 0.00 99 1020.9
20260831075101 71 210 0.0 0.0 0.00 0.00 0.00 99 1020.9
20260831074600 71 210 0.0 0.0 0.00 0.00 0.00 99 1020.9
20260831074055 71 210 0.0 0.0 0.00 0.00 0.00 99 1020.6
20260831073550 71 210 0.0 0.0 0.00 0.00 0.00 99 1020.8
20260831073049 71 210 0.0 0.0 0.00 0.00 0.00 99 1020.9
20260831072544 71 210 0.0 0.0 0.00 0.00 0.00 99 1020.8
20260831072041 71 210 0.0 0.0 0.00 0.00 0.00 99 1020.9
20260831071540 71 210 0.0 0.0 0.00 0.00 0.00 99 1020.7
20260831071035 71 210 0.0 0.0 0.00 0.00 0.00 99 1020.9
20260831070534 71 210 0.0 0.0 0.00 0.00 0.00 99 1021.1
20260831070029 71 210 0.0 0.0 0.00 0.00 0.00 99 1021.0
20260831065527 71 210 0.0 0.0 0.00 0.00 0.00 99 1021.2
20260831065021 71 210 0.0 0.0 0.00 0.00 0.00 98 1020.9
20260831064517 72 210 0.0 0.0 0.00 0.00 0.00 98 1021.0
20260831064012 72 210 0.0 0.0 0.00 0.00 0.00 98 1021.1
20260831063508 72 210 0.0 0.0 0.00 0.00 0.00 97 1020.9
20260831063008 72 210 0.0 0.0 0.00 0.00 0.00 97 1021.0
20260831062503 72 210 0.0 0.0 0.00 0.00 0.00 97 1021.0
20260831062002 73 210 0.0 0.0 0.00 0.00 0.00 96 1021.0
20260831061500 73 203 0.0 0.0 0.00 0.00 0.00 96 1021.0
20260831060956 73 210 0.0 0.0 0.00 0.00 0.00 96 1020.9
20260831060451 73 210 0.0 0.0 0.00 0.00 0.00 95 1020.8
20260831055951 73 210 0.0 0.0 0.00 0.00 0.00 95 1021.0
20260831055446 73 210 0.0 0.0 0.00 0.00 0.00 94 1021.0
20260831054941 74 210 0.0 0.0 0.00 0.00 0.00 94 1020.9
20260831054436 74 210 0.0 0.0 0.00 0.00 0.00 93 1020.9
20260831053935 74 210 0.0 0.0 0.00 0.00 0.00 92 1021.2
20260831053433 75 210 0.0 0.0 0.00 0.00 0.00 91 1021.0
20260831052928 75 210 0.0 0.0 0.00 0.00 0.00 90 1021.1
20260831052428 76 210 0.0 0.0 0.00 0.00 0.00 90 1020.9
20260831051926 76 210 0.0 0.0 0.00 0.00 0.00 89 1020.9
20260831051425 76 210 0.9 1.7 0.00 0.00 0.00 88 1021.1
20260831050919 76 210 0.9 1.7 0.00 0.00 0.00 87 1021.1
20260831050414 76 210 0.9 1.7 0.00 0.00 0.00 87 1020.9
20260831045913 77 210 0.9 1.7 0.00 0.00 0.00 87 1021.0
20260831045412 76 210 0.9 1.7 0.00 0.00 0.00 87 1020.9
20260831044907 77 210 0.9 1.7 0.00 0.00 0.00 87 1020.8
20260831044402 77 210 0.9 1.7 0.00 0.00 0.00 87 1020.8
20260831043858 76 210 0.9 1.7 0.00 0.00 0.00 87 1021.0
20260831043357 77 210 0.9 1.7 0.00 0.00 0.00 87 1020.9
20260831042853 77 210 0.9 1.7 0.00 0.00 0.00 87 1021.0
20260831042352 77 210 0.0 0.0 0.00 0.00 0.00 87 1020.9
20260831041847 77 210 0.9 2.6 0.00 0.00 0.00 86 1021.1
20260831041347 77 210 0.0 0.9 0.00 0.00 0.00 86 1021.1
20260831040842 77 210 1.7 2.6 0.00 0.00 0.00 87 1021.1
20260831040336 77 210 0.9 1.7 0.00 0.00 0.00 86 1021.1
20260831035834 77 210 0.0 0.9 0.00 0.00 0.00 86 1020.9
20260831035333 77 210 0.9 1.7 0.00 0.00 0.00 87 1020.8
20260831034828 77 210 0.9 1.7 0.00 0.00 0.00 86 1021.0
20260831034324 77 210 0.9 0.9 0.00 0.00 0.00 87 1021.1
20260831033818 77 210 0.9 1.7 0.00 0.00 0.00 86 1021.0
20260831033313 77 210 0.9 0.9 0.00 0.00 0.00 86 1021.1
20260831032809 77 210 0.0 0.0 0.00 0.00 0.00 87 1021.2
20260831032306 78 210 0.0 0.0 0.00 0.00 0.00 86 1021.3
20260831031758 78 210 0.0 0.9 0.00 0.00 0.00 86 1021.0
20260831031257 78 210 0.0 0.0 0.00 0.00 0.00 86 1021.1
20260831030753 78 210 0.0 1.7 0.00 0.00 0.00 86 1021.1
20260831030250 78 210 0.0 0.0 0.00 0.00 0.00 86 1021.0
20260831025750 78 210 0.0 1.7 0.00 0.00 0.00 85 1021.1
20260831025244 78 210 0.0 0.0 0.00 0.00 0.00 86 1021.0
20260831024740 78 210 0.9 0.9 0.00 0.00 0.00 85 1021.0
20260831024239 79 210 0.0 0.0 0.00 0.00 0.00 84 1021.0
20260831023738 79 210 0.9 1.7 0.00 0.00 0.00 84 1021.0
20260831023237 79 210 0.0 0.0 0.00 0.00 0.00 84 1020.8
20260831022732 79 205 0.0 0.0 0.00 0.00 0.00 84 1020.8
20260831022227 79 210 0.0 0.9 0.00 0.00 0.00 83 1020.9